• In Deutschland
  • Länderverzeichnis
  • Für 7 Tage
  • Wassertemperatur
  • Satellitenkarten
  • Wetterkarte
  • Widgets
  • user-avatar
    Anmelden

    Stündliche Wetter Nendeln

    Heute, 22 Februar, Donnerstag

    Zeit Temperatur Niederschläge Wind Luftdruck Luftfeuchtigkeit
    00:00 -8°C° 0 mm 2 m/S 664 mmHg 91%
    01:00 -9°C° 0 mm 2 m/S 664 mmHg 90%
    02:00 -9°C° 0 mm 2 m/S 663 mmHg 89%
    03:00 -9°C° 0 mm 2 m/S 663 mmHg 88%
    04:00 -9°C° 0 mm 2 m/S 663 mmHg 86%
    05:00 -9°C° 0 mm 2 m/S 663 mmHg 86%
    06:00 -9°C° 0 mm 2 m/S 662 mmHg 86%
    07:00 -10°C° 0 mm 2 m/S 662 mmHg 85%
    08:00 -8°C° 0 mm 2 m/S 662 mmHg 83%
    09:00 -7°C° 0 mm 2 m/S 663 mmHg 80%
    10:00 -6°C° 0 mm 2 m/S 663 mmHg 77%
    11:00 -6°C° 0 mm 3 m/S 663 mmHg 77%
    12:00 -5°C° 0 mm 3 m/S 663 mmHg 77%
    13:00 -4°C° 0 mm 3 m/S 662 mmHg 76%
    14:00 -4°C° 0 mm 3 m/S 662 mmHg 79%
    15:00 -4°C° 0 mm 3 m/S 662 mmHg 81%
    16:00 -4°C° 0 mm 3 m/S 662 mmHg 84%
    17:00 -5°C° 0 mm 3 m/S 662 mmHg 87%
    18:00 -5°C° 0 mm 2 m/S 662 mmHg 90%
    19:00 -6°C° 0 mm 2 m/S 663 mmHg 92%
    20:00 -6°C° 0 mm 2 m/S 663 mmHg 92%
    21:00 -6°C° 0 mm 2 m/S 663 mmHg 91%
    22:00 -7°C° 0 mm 2 m/S 663 mmHg 90%
    23:00 -7°C° 0 mm 2 m/S 663 mmHg 89%

    Morgen, 23 Februar, Freitag

    Zeit Temperatur Niederschläge Wind Luftdruck Luftfeuchtigkeit
    00:00 -7°C° 0 mm 2 m/S 663 mmHg 87%
    01:00 -8°C° 0 mm 2 m/S 663 mmHg 86%
    02:00 -8°C° 0 mm 2 m/S 663 mmHg 84%
    03:00 -8°C° 0 mm 2 m/S 662 mmHg 82%
    04:00 -8°C° 0 mm 2 m/S 662 mmHg 80%
    05:00 -8°C° 0 mm 2 m/S 662 mmHg 79%
    06:00 -8°C° 0 mm 2 m/S 662 mmHg 77%
    07:00 -8°C° 0 mm 2 m/S 662 mmHg 76%
    08:00 -6°C° 0 mm 2 m/S 662 mmHg 74%
    09:00 -5°C° 0 mm 2 m/S 663 mmHg 73%
    10:00 -3°C° 0 mm 2 m/S 663 mmHg 71%
    11:00 -2°C° 0 mm 2 m/S 663 mmHg 72%
    12:00 -1°C° 0 mm 2 m/S 663 mmHg 72%
    13:00 +1°C° 0 mm 2 m/S 663 mmHg 73%
    14:00 +1°C° 0 mm 2 m/S 663 mmHg 75%
    15:00 +1°C° 0 mm 2 m/S 663 mmHg 78%
    16:00 +1°C° 0 mm 2 m/S 663 mmHg 80%
    17:00 -1°C° 0 mm 2 m/S 663 mmHg 83%
    18:00 -2°C° 0 mm 2 m/S 663 mmHg 86%
    19:00 -3°C° 0 mm 2 m/S 663 mmHg 89%
    20:00 -4°C° 0 mm 2 m/S 663 mmHg 86%
    21:00 -4°C° 0 mm 2 m/S 663 mmHg 84%
    22:00 -4°C° 0 mm 2 m/S 664 mmHg 82%
    23:00 -4°C° 0 mm 2 m/S 664 mmHg 80%

    übermorgen, 24 Februar, Samstag

    Zeit Temperatur Niederschläge Wind Luftdruck Luftfeuchtigkeit
    00:00 -3°C° 0 mm 2 m/S 664 mmHg 79%
    01:00 -3°C° 0 mm 2 m/S 664 mmHg 78%
    02:00 -3°C° 0 mm 2 m/S 664 mmHg 78%
    03:00 -3°C° 0 mm 2 m/S 664 mmHg 78%
    04:00 -4°C° 0 mm 2 m/S 664 mmHg 79%
    05:00 -3°C° 0 mm 2 m/S 664 mmHg 79%
    06:00 -3°C° 0 mm 2 m/S 664 mmHg 80%
    07:00 -3°C° 0 mm 2 m/S 664 mmHg 81%
    08:00 -2°C° 0 mm 2 m/S 664 mmHg 80%
    09:00 +1°C° 0 mm 2 m/S 664 mmHg 80%
    10:00 +2°C° 0 mm 2 m/S 665 mmHg 79%
    11:00 +3°C° 0 mm 2 m/S 665 mmHg 81%
    12:00 +3°C° 0 mm 2 m/S 665 mmHg 83%
    13:00 +4°C° 0 mm 2 m/S 665 mmHg 84%
    14:00 +4°C° 0 mm 2 m/S 665 mmHg 86%
    15:00 +3°C° 0 mm 2 m/S 664 mmHg 88%
    16:00 +3°C° 0 mm 2 m/S 664 mmHg 90%
    17:00 +2°C° 0 mm 2 m/S 664 mmHg 92%
    18:00 +1°C° 0 mm 2 m/S 665 mmHg 93%
    19:00 -1°C° 0 mm 2 m/S 665 mmHg 94%
    20:00 -2°C° 0 mm 2 m/S 665 mmHg 93%
    21:00 -2°C° 0 mm 2 m/S 665 mmHg 93%
    22:00 -2°C° 0 mm 2 m/S 665 mmHg 92%
    23:00 -3°C° 0 mm 2 m/S 665 mmHg 92%

    25 Februar, Sonntag

    Zeit Temperatur Niederschläge Wind Luftdruck Luftfeuchtigkeit
    00:00 -3°C° 0 mm 2 m/S 665 mmHg 92%
    01:00 -3°C° 0 mm 2 m/S 665 mmHg 91%
    02:00 -4°C° 0 mm 2 m/S 665 mmHg 92%
    03:00 -4°C° 0 mm 2 m/S 665 mmHg 92%
    04:00 -4°C° 0 mm 2 m/S 665 mmHg 92%
    05:00 -4°C° 0,1 mm 2 m/S 665 mmHg 92%
    06:00 -5°C° 0,1 mm 2 m/S 665 mmHg 91%
    07:00 -5°C° 0,1 mm 2 m/S 665 mmHg 90%
    08:00 -6°C° 0,1 mm 3 m/S 665 mmHg 89%
    09:00 -6°C° 0,1 mm 3 m/S 665 mmHg 87%
    10:00 -6°C° 0,1 mm 3 m/S 665 mmHg 86%
    11:00 -6°C° 0,2 mm 3 m/S 665 mmHg 84%
    12:00 -6°C° 0,2 mm 3 m/S 665 mmHg 83%
    13:00 -7°C° 0,2 mm 4 m/S 665 mmHg 82%
    14:00 -7°C° 0,2 mm 4 m/S 665 mmHg 82%
    15:00 -7°C° 0,2 mm 4 m/S 665 mmHg 82%
    16:00 -8°C° 0,2 mm 4 m/S 665 mmHg 82%
    17:00 -9°C° 0,1 mm 4 m/S 665 mmHg 83%
    18:00 -10°C° 0,1 mm 4 m/S 666 mmHg 84%
    19:00 -11°C° 0,1 mm 4 m/S 666 mmHg 85%
    20:00 -12°C° 0 mm 3 m/S 666 mmHg 85%
    21:00 -12°C° 0 mm 3 m/S 666 mmHg 86%
    22:00 -13°C° 0 mm 3 m/S 666 mmHg 86%
    23:00 -14°C° 0 mm 3 m/S 666 mmHg 86%

    26 Februar, Montag

    Zeit Temperatur Niederschläge Wind Luftdruck Luftfeuchtigkeit
    00:00 -14°C° 0 mm 3 m/S 666 mmHg 86%
    01:00 -15°C° 0 mm 3 m/S 666 mmHg 86%
    02:00 -15°C° 0 mm 3 m/S 666 mmHg 86%
    03:00 -15°C° 0 mm 3 m/S 666 mmHg 86%
    04:00 -16°C° 0 mm 3 m/S 666 mmHg 86%
    05:00 -16°C° 0 mm 3 m/S 666 mmHg 86%
    06:00 -16°C° 0 mm 3 m/S 666 mmHg 86%
    07:00 -17°C° 0 mm 3 m/S 666 mmHg 86%
    08:00 -16°C° 0 mm 3 m/S 666 mmHg 83%
    09:00 -15°C° 0 mm 3 m/S 666 mmHg 80%
    10:00 -15°C° 0 mm 4 m/S 666 mmHg 77%
    11:00 -15°C° 0 mm 4 m/S 666 mmHg 74%
    12:00 -14°C° 0 mm 4 m/S 665 mmHg 72%
    13:00 -14°C° 0 mm 4 m/S 665 mmHg 70%
    14:00 -14°C° 0 mm 4 m/S 665 mmHg 70%
    15:00 -14°C° 0 mm 4 m/S 665 mmHg 71%
    16:00 -14°C° 0 mm 4 m/S 665 mmHg 72%
    17:00 -15°C° 0 mm 4 m/S 665 mmHg 75%
    18:00 -16°C° 0 mm 4 m/S 665 mmHg 78%
    19:00 -16°C° 0 mm 3 m/S 665 mmHg 81%
    20:00 -16°C° 0 mm 3 m/S 664 mmHg 82%
    21:00 -17°C° 0 mm 3 m/S 664 mmHg 82%
    22:00 -17°C° 0 mm 2 m/S 664 mmHg 83%
    23:00 -17°C° 0 mm 2 m/S 664 mmHg 83%

    27 Februar, Dienstag

    Zeit Temperatur Niederschläge Wind Luftdruck Luftfeuchtigkeit
    00:00 -17°C° 0 mm 2 m/S 664 mmHg 83%
    01:00 -18°C° 0 mm 2 m/S 663 mmHg 83%
    02:00 -18°C° 0 mm 2 m/S 663 mmHg 82%
    03:00 -18°C° 0 mm 2 m/S 663 mmHg 82%
    04:00 -19°C° 0 mm 2 m/S 662 mmHg 81%
    05:00 -19°C° 0 mm 2 m/S 662 mmHg 81%
    06:00 -19°C° 0 mm 2 m/S 662 mmHg 81%
    07:00 -19°C° 0 mm 2 m/S 662 mmHg 81%
    08:00 -17°C° 0 mm 2 m/S 662 mmHg 76%
    09:00 -16°C° 0 mm 2 m/S 662 mmHg 72%
    10:00 -14°C° 0 mm 2 m/S 662 mmHg 68%
    11:00 -13°C° 0 mm 2 m/S 662 mmHg 67%
    12:00 -14°C° 0 mm 3 m/S 662 mmHg 66%
    13:00 -13°C° 0 mm 3 m/S 662 mmHg 66%
    14:00 -13°C° 0 mm 3 m/S 662 mmHg 67%
    15:00 -13°C° 0 mm 3 m/S 661 mmHg 69%
    16:00 -13°C° 0 mm 3 m/S 661 mmHg 71%
    17:00 -14°C° 0 mm 3 m/S 662 mmHg 75%
    18:00 -14°C° 0 mm 2 m/S 662 mmHg 80%
    19:00 -15°C° 0 mm 2 m/S 662 mmHg 84%
    20:00 -16°C° 0 mm 2 m/S 662 mmHg 85%
    21:00 -14°C° 0 mm 1 m/S 662 mmHg 86%
    22:00 -15°C° 0 mm 1 m/S 663 mmHg 86%
    23:00 -15°C° 0 mm 1 m/S 662 mmHg 85%
    Mehr zeigen